FFT2833 KMCO-KMKE

Flight info

Callsign FFT2833
Flight time 2h 29m
Altitude 36000
Route JEEMY4 PAINN SHRKS Q77 WIGVO MULSN CEMEX FLM FWA ELX BRAVE EXARR
Aircraft A20N/M-SDE2E3FGHIJ1RWXY/LB1

Departure

Time 2026-05-07 12:29
Airport Orlando International Airport (KMCO)

Arrival

Time 2026-05-07 14:58
Airport General Mitchell International Airport (KMKE)
Time Latitude Longitude Altitude Speed Heading
2026-05-07 11:34 28.43541 -81.31536 104 ft 0 kts 87°
2026-05-07 12:18 28.43541 -81.31544 104 ft 2 kts 87°
2026-05-07 12:18 28.43540 -81.31562 104 ft 2 kts 87°
2026-05-07 12:19 28.43539 -81.31579 104 ft 2 kts 87°
2026-05-07 12:19 28.43538 -81.31596 104 ft 2 kts 87°
2026-05-07 12:19 28.43537 -81.31612 104 ft 2 kts 87°
2026-05-07 12:19 28.43541 -81.31629 104 ft 2 kts 122°
2026-05-07 12:20 28.43551 -81.31642 104 ft 2 kts 150°
2026-05-07 12:20 28.43566 -81.31647 104 ft 2 kts 179°
2026-05-07 12:20 28.43574 -81.31647 104 ft 1 kts 195°
2026-05-07 12:20 28.43578 -81.31645 104 ft 0 kts 192°
2026-05-07 12:23 28.43566 -81.31648 104 ft 3 kts 192°
2026-05-07 12:23 28.43534 -81.31659 104 ft 6 kts 207°
2026-05-07 12:24 28.43508 -81.31723 104 ft 13 kts 272°
2026-05-07 12:24 28.43514 -81.31825 104 ft 13 kts 315°
2026-05-07 12:24 28.43614 -81.31844 104 ft 16 kts
2026-05-07 12:24 28.43741 -81.31846 104 ft 19 kts 359°
2026-05-07 12:25 28.43877 -81.31847 104 ft 19 kts 359°
2026-05-07 12:25 28.44004 -81.31881 104 ft 18 kts 342°
2026-05-07 12:25 28.44131 -81.31899 104 ft 17 kts
2026-05-07 12:25 28.44255 -81.31901 104 ft 17 kts 360°
2026-05-07 12:26 28.44381 -81.31902 104 ft 17 kts 359°
2026-05-07 12:26 28.44504 -81.31904 104 ft 17 kts 359°
2026-05-07 12:26 28.44627 -81.31905 104 ft 17 kts 359°
2026-05-07 12:26 28.44750 -81.31906 104 ft 17 kts 360°
2026-05-07 12:27 28.44826 -81.31957 104 ft 13 kts 282°
2026-05-07 12:27 28.44825 -81.32065 104 ft 13 kts 270°
2026-05-07 12:27 28.44824 -81.32159 104 ft 8 kts 270°
2026-05-07 12:27 28.44815 -81.32225 104 ft 8 kts 220°
2026-05-07 12:28 28.44749 -81.32230 104 ft 12 kts 178°
2026-05-07 12:28 28.44509 -81.32227 104 ft 68 kts 180°
2026-05-07 12:28 28.43802 -81.32219 105 ft 130 kts 180°
2026-05-07 12:28 28.42749 -81.32205 273 ft 161 kts 179°
2026-05-07 12:29 28.41640 -81.32182 852 ft 159 kts 179°
2026-05-07 12:29 28.40550 -81.32129 1480 ft 159 kts 179°
2026-05-07 12:29 28.39449 -81.32196 2027 ft 162 kts 198°
2026-05-07 12:29 28.38378 -81.32770 2384 ft 179 kts 210°
2026-05-07 12:30 28.37251 -81.33517 2777 ft 196 kts 211°
2026-05-07 12:30 28.36023 -81.34319 3123 ft 216 kts 213°
2026-05-07 12:30 28.34768 -81.35441 3519 ft 237 kts 226°
2026-05-07 12:30 28.33679 -81.36903 3985 ft 254 kts 238°
2026-05-07 12:31 28.33135 -81.38835 4631 ft 264 kts 269°
2026-05-07 12:31 28.33639 -81.40810 5438 ft 270 kts 303°
2026-05-07 12:31 28.34929 -81.42356 6216 ft 275 kts 321°
2026-05-07 12:31 28.36691 -81.43243 6719 ft 283 kts 351°
2026-05-07 12:32 28.38685 -81.43273 7437 ft 288 kts 359°
2026-05-07 12:32 28.40669 -81.43228 8234 ft 290 kts 359°
2026-05-07 12:32 28.42710 -81.43181 8957 ft 293 kts 359°
2026-05-07 12:32 28.44746 -81.43124 9614 ft 296 kts 359°
2026-05-07 12:33 28.48951 -81.42991 10630 ft 313 kts 359°
2026-05-07 12:33 28.51242 -81.42913 10917 ft 330 kts 359°
2026-05-07 12:33 28.53589 -81.42831 11203 ft 345 kts 359°
2026-05-07 12:34 28.56054 -81.42743 11706 ft 352 kts 359°
2026-05-07 12:34 28.58547 -81.42649 12355 ft 353 kts 359°
2026-05-07 12:34 28.61080 -81.42554 13001 ft 355 kts 359°
2026-05-07 12:34 28.63731 -81.42457 13639 ft 358 kts 359°
2026-05-07 12:35 28.66240 -81.42364 14238 ft 360 kts 358°
2026-05-07 12:35 28.68782 -81.42269 14844 ft 362 kts 358°
2026-05-07 12:35 28.71363 -81.42175 15434 ft 364 kts 358°
2026-05-07 12:35 28.74052 -81.42076 16041 ft 366 kts 358°
2026-05-07 12:36 28.76596 -81.41982 16603 ft 369 kts 358°
2026-05-07 12:36 28.79197 -81.41888 17167 ft 371 kts 357°
2026-05-07 12:36 28.81962 -81.41785 17756 ft 373 kts 357°
2026-05-07 12:36 28.84811 -81.41679 18337 ft 376 kts 357°
2026-05-07 12:37 28.87650 -81.41573 18891 ft 378 kts 356°
2026-05-07 12:37 28.90332 -81.41476 19382 ft 382 kts 356°
2026-05-07 12:37 28.92975 -81.41383 19878 ft 383 kts 355°
2026-05-07 12:37 28.95648 -81.41415 20375 ft 383 kts 352°
2026-05-07 12:38 28.98300 -81.41625 20859 ft 383 kts 349°
2026-05-07 12:38 29.00981 -81.41916 21326 ft 385 kts 348°
2026-05-07 12:38 29.03654 -81.42217 21758 ft 387 kts 348°
2026-05-07 12:38 29.06524 -81.42540 22216 ft 390 kts 348°
2026-05-07 12:39 29.09236 -81.42842 22630 ft 393 kts 348°
2026-05-07 12:39 29.12166 -81.43147 23098 ft 396 kts 348°
2026-05-07 12:39 29.15097 -81.43425 23529 ft 398 kts 349°
2026-05-07 12:39 29.18111 -81.43707 23954 ft 401 kts 349°
2026-05-07 12:40 29.20959 -81.43974 24336 ft 404 kts 348°
2026-05-07 12:40 29.23831 -81.44246 24729 ft 407 kts 348°
2026-05-07 12:40 29.26651 -81.44514 25097 ft 409 kts 349°
2026-05-07 12:40 29.29521 -81.44786 25453 ft 412 kts 348°
2026-05-07 12:41 29.32634 -81.45081 25844 ft 414 kts 348°
2026-05-07 12:41 29.35992 -81.45400 26252 ft 416 kts 348°
2026-05-07 12:41 29.39372 -81.45722 26636 ft 419 kts 348°
2026-05-07 12:41 29.42450 -81.46014 26979 ft 421 kts 348°
2026-05-07 12:42 29.45620 -81.46317 27304 ft 423 kts 348°
2026-05-07 12:42 29.48693 -81.46611 27620 ft 425 kts 348°
2026-05-07 12:42 29.51646 -81.46892 27938 ft 427 kts 348°
2026-05-07 12:42 29.54624 -81.47176 28248 ft 428 kts 348°
2026-05-07 12:43 29.57632 -81.47463 28645 ft 427 kts 348°
2026-05-07 12:43 29.60744 -81.47749 29100 ft 426 kts 348°
2026-05-07 12:43 29.63714 -81.48018 29531 ft 425 kts 348°
2026-05-07 12:43 29.66702 -81.48286 29942 ft 424 kts 348°
2026-05-07 12:44 29.69770 -81.48563 30370 ft 423 kts 348°
2026-05-07 12:44 29.72763 -81.48834 30749 ft 423 kts 348°
2026-05-07 12:44 29.75766 -81.49105 31127 ft 422 kts 348°
2026-05-07 12:44 29.78825 -81.49382 31543 ft 421 kts 348°
2026-05-07 12:45 29.81762 -81.49648 31930 ft 419 kts 348°
2026-05-07 12:45 29.84684 -81.49935 32268 ft 417 kts 346°
2026-05-07 12:45 29.87548 -81.50375 32561 ft 415 kts 343°
2026-05-07 12:45 29.90345 -81.50989 32861 ft 411 kts 340°
2026-05-07 12:46 29.93130 -81.51792 33166 ft 407 kts 336°
2026-05-07 12:46 29.95868 -81.52737 33489 ft 405 kts 335°
2026-05-07 12:46 29.98550 -81.53694 33825 ft 404 kts 335°
2026-05-07 12:46 30.01258 -81.54665 34143 ft 402 kts 335°
2026-05-07 12:47 30.03942 -81.55630 34438 ft 401 kts 335°
2026-05-07 12:47 30.06613 -81.56587 34697 ft 401 kts 335°
2026-05-07 12:47 30.09269 -81.57539 34900 ft 402 kts 335°
2026-05-07 12:47 30.11964 -81.58507 35094 ft 402 kts 335°
2026-05-07 12:48 30.14637 -81.59467 35307 ft 402 kts 335°
2026-05-07 12:48 30.17335 -81.60433 35519 ft 402 kts 335°
2026-05-07 12:48 30.20024 -81.61400 35716 ft 402 kts 335°
2026-05-07 12:48 30.22683 -81.62353 35892 ft 402 kts 335°
2026-05-07 12:49 30.25379 -81.63321 36014 ft 403 kts 335°
2026-05-07 12:49 30.28065 -81.64288 36012 ft 404 kts 335°
2026-05-07 12:49 30.33490 -81.66237 36016 ft 405 kts 335°
2026-05-07 12:50 30.38862 -81.68173 36016 ft 405 kts 335°
2026-05-07 12:50 30.44261 -81.70117 36010 ft 403 kts 335°
2026-05-07 12:51 30.49647 -81.72061 36009 ft 403 kts 335°
2026-05-07 12:51 30.55065 -81.74020 36007 ft 404 kts 335°
2026-05-07 12:52 30.60493 -81.75955 36005 ft 405 kts 336°
2026-05-07 12:52 30.66122 -81.77410 36002 ft 411 kts 341°
2026-05-07 12:53 30.71895 -81.78571 35996 ft 412 kts 342°
2026-05-07 12:53 30.77535 -81.79697 35993 ft 412 kts 342°
2026-05-07 12:54 30.83206 -81.80830 35992 ft 412 kts 342°
2026-05-07 12:54 30.88865 -81.81964 35987 ft 411 kts 342°
2026-05-07 12:55 30.94541 -81.83102 35983 ft 411 kts 342°
2026-05-07 12:55 31.00179 -81.84237 35985 ft 411 kts 342°
2026-05-07 12:56 31.05856 -81.85378 35984 ft 412 kts 342°
2026-05-07 12:56 31.11579 -81.86532 35984 ft 413 kts 341°
2026-05-07 12:57 31.17275 -81.87682 35982 ft 414 kts 341°
2026-05-07 12:57 31.23004 -81.88839 35981 ft 413 kts 341°
2026-05-07 12:58 31.28756 -81.90003 35979 ft 414 kts 341°
2026-05-07 12:58 31.34477 -81.91161 35979 ft 415 kts 341°
2026-05-07 12:59 31.40182 -81.92318 35984 ft 416 kts 341°
2026-05-07 12:59 31.46020 -81.93504 35987 ft 417 kts 341°
2026-05-07 13:00 31.51768 -81.94672 35995 ft 417 kts 341°
2026-05-07 13:00 31.57547 -81.95847 36000 ft 417 kts 341°
2026-05-07 13:01 31.63277 -81.97015 35996 ft 418 kts 341°
2026-05-07 13:01 31.69141 -81.98210 35994 ft 419 kts 341°
2026-05-07 13:02 31.74983 -81.99403 35990 ft 419 kts 341°
2026-05-07 13:02 31.80827 -82.00600 35990 ft 419 kts 341°
2026-05-07 13:03 31.86751 -82.01651 35986 ft 424 kts 346°
2026-05-07 13:03 31.92817 -82.02035 35988 ft 429 kts 349°
2026-05-07 13:04 31.98975 -82.02238 35991 ft 431 kts 349°
2026-05-07 13:04 32.05078 -82.02442 35993 ft 431 kts 349°
2026-05-07 13:05 32.11124 -82.02649 35988 ft 431 kts 349°
2026-05-07 13:05 32.17258 -82.02860 35987 ft 432 kts 349°
2026-05-07 13:06 32.23425 -82.03073 35988 ft 430 kts 349°
2026-05-07 13:06 32.29539 -82.03283 35981 ft 431 kts 349°
2026-05-07 13:07 32.35555 -82.03491 35979 ft 432 kts 349°
2026-05-07 13:07 32.41640 -82.03879 35968 ft 427 kts 344°
2026-05-07 13:08 32.47503 -82.05016 35973 ft 420 kts 338°
2026-05-07 13:08 32.53136 -82.06918 35958 ft 412 kts 332°
2026-05-07 13:09 32.58616 -82.09186 35934 ft 412 kts 331°
2026-05-07 13:09 32.64124 -82.11485 35930 ft 412 kts 331°
2026-05-07 13:10 32.69580 -82.13755 35930 ft 412 kts 331°
2026-05-07 13:10 32.75030 -82.16029 35929 ft 412 kts 331°
2026-05-07 13:11 32.80518 -82.18316 35923 ft 412 kts 331°
2026-05-07 13:11 32.86035 -82.20622 35921 ft 412 kts 331°
2026-05-07 13:12 32.91451 -82.22885 35918 ft 413 kts 331°
2026-05-07 13:12 32.96871 -82.25154 35917 ft 411 kts 331°
2026-05-07 13:13 33.02317 -82.27437 35912 ft 412 kts 331°
2026-05-07 13:13 33.07714 -82.29703 35909 ft 412 kts 331°
2026-05-07 13:14 33.13173 -82.31996 35905 ft 412 kts 330°
2026-05-07 13:14 33.18603 -82.34282 35910 ft 414 kts 330°
2026-05-07 13:15 33.24055 -82.36582 35905 ft 413 kts 330°
2026-05-07 13:15 33.29475 -82.38869 35905 ft 414 kts 330°
2026-05-07 13:16 33.34921 -82.41170 35905 ft 414 kts 330°
2026-05-07 13:16 33.40396 -82.43490 35914 ft 417 kts 330°
2026-05-07 13:17 33.45852 -82.45795 35910 ft 415 kts 330°
2026-05-07 13:17 33.51327 -82.48123 35921 ft 419 kts 329°
2026-05-07 13:18 33.56801 -82.50445 35922 ft 417 kts 329°
2026-05-07 13:18 33.62363 -82.52813 35919 ft 418 kts 330°
2026-05-07 13:19 33.67887 -82.55164 35908 ft 417 kts 329°
2026-05-07 13:19 33.73426 -82.57528 35908 ft 417 kts 329°
2026-05-07 13:20 33.78919 -82.59872 35904 ft 418 kts 329°
2026-05-07 13:20 33.84473 -82.62250 35898 ft 417 kts 329°
2026-05-07 13:21 33.89972 -82.64603 35894 ft 419 kts 329°
2026-05-07 13:21 33.95555 -82.66995 35891 ft 421 kts 329°
2026-05-07 13:22 34.01409 -82.68996 35892 ft 427 kts 335°
2026-05-07 13:22 34.07353 -82.70487 35891 ft 430 kts 336°
2026-05-07 13:23 34.13398 -82.71971 35892 ft 428 kts 336°
2026-05-07 13:23 34.19333 -82.73439 35894 ft 431 kts 335°
2026-05-07 13:24 34.25319 -82.74921 35894 ft 429 kts 335°
2026-05-07 13:24 34.31224 -82.76386 35890 ft 430 kts 335°
2026-05-07 13:25 34.37141 -82.77860 35899 ft 433 kts 335°
2026-05-07 13:25 34.43063 -82.79339 35903 ft 432 kts 335°
2026-05-07 13:26 34.49005 -82.80820 35901 ft 430 kts 334°
2026-05-07 13:26 34.54924 -82.82301 35901 ft 431 kts 334°
2026-05-07 13:27 34.60790 -82.83768 35902 ft 429 kts 334°
2026-05-07 13:27 34.66807 -82.85280 35896 ft 429 kts 334°
2026-05-07 13:28 34.72793 -82.86786 35895 ft 432 kts 334°
2026-05-07 13:28 34.78833 -82.88300 35888 ft 431 kts 333°
2026-05-07 13:29 34.84941 -82.89842 35893 ft 430 kts 333°
2026-05-07 13:29 34.90911 -82.91347 35890 ft 430 kts 333°
2026-05-07 13:30 34.96837 -82.92844 35898 ft 429 kts 333°
2026-05-07 13:30 35.02754 -82.94341 35909 ft 429 kts 333°
2026-05-07 13:31 35.08632 -82.95832 35925 ft 428 kts 333°
2026-05-07 13:31 35.14506 -82.97324 35931 ft 427 kts 333°
2026-05-07 13:32 35.20338 -82.98807 35943 ft 427 kts 332°
2026-05-07 13:32 35.26282 -83.00317 35960 ft 425 kts 332°
2026-05-07 13:33 35.32257 -83.01843 35958 ft 426 kts 332°
2026-05-07 13:33 35.38109 -83.03339 35949 ft 427 kts 332°
2026-05-07 13:34 35.46865 -83.05576 35948 ft 424 kts 332°
2026-05-07 13:35 35.52658 -83.07059 35947 ft 423 kts 332°
2026-05-07 13:35 35.58466 -83.08552 35943 ft 423 kts 332°
2026-05-07 13:36 35.64223 -83.10032 35950 ft 422 kts 332°
2026-05-07 13:36 35.70025 -83.11526 35955 ft 424 kts 331°
2026-05-07 13:37 35.75802 -83.13016 35962 ft 422 kts 332°
2026-05-07 13:37 35.81589 -83.14508 35961 ft 421 kts 332°
2026-05-07 13:38 35.87341 -83.15997 35965 ft 420 kts 331°
2026-05-07 13:38 35.93090 -83.17485 35961 ft 421 kts 331°
2026-05-07 13:39 35.98881 -83.18987 35962 ft 421 kts 331°
2026-05-07 13:39 36.04681 -83.20493 35970 ft 420 kts 331°
2026-05-07 13:40 36.10480 -83.21999 35973 ft 418 kts 331°
2026-05-07 13:40 36.16219 -83.23495 35976 ft 418 kts 331°
2026-05-07 13:41 36.21917 -83.24982 35980 ft 416 kts 331°
2026-05-07 13:41 36.27628 -83.26475 35985 ft 418 kts 330°
2026-05-07 13:42 36.33341 -83.27971 35979 ft 416 kts 330°
2026-05-07 13:42 36.39054 -83.29469 35979 ft 418 kts 330°
2026-05-07 13:43 36.44803 -83.30978 35971 ft 418 kts 330°
2026-05-07 13:43 36.50504 -83.32472 35970 ft 416 kts 330°
2026-05-07 13:44 36.56230 -83.33984 35971 ft 417 kts 330°
2026-05-07 13:44 36.61937 -83.35487 35974 ft 417 kts 330°
2026-05-07 13:45 36.67654 -83.36996 35975 ft 416 kts 330°
2026-05-07 13:45 36.73385 -83.38525 35973 ft 414 kts 328°
2026-05-07 13:46 36.78844 -83.40510 35972 ft 401 kts 322°
2026-05-07 13:46 36.84228 -83.43028 35980 ft 398 kts 321°
2026-05-07 13:47 36.89365 -83.45476 35979 ft 397 kts 321°
2026-05-07 13:47 36.94520 -83.47932 35986 ft 396 kts 321°
2026-05-07 13:48 36.99694 -83.50397 35986 ft 396 kts 321°
2026-05-07 13:48 37.04890 -83.52880 35990 ft 395 kts 321°
2026-05-07 13:49 37.10008 -83.55320 35994 ft 394 kts 321°
2026-05-07 13:49 37.15284 -83.57846 35994 ft 395 kts 320°
2026-05-07 13:50 37.20442 -83.60319 35991 ft 393 kts 320°
2026-05-07 13:50 37.25590 -83.62785 35997 ft 393 kts 320°
2026-05-07 13:51 37.30713 -83.65247 36001 ft 391 kts 320°
2026-05-07 13:51 37.35852 -83.67721 36001 ft 392 kts 320°
2026-05-07 13:52 37.41036 -83.70218 36001 ft 392 kts 320°
2026-05-07 13:52 37.46180 -83.72699 36002 ft 390 kts 320°
2026-05-07 13:53 37.51258 -83.75154 36002 ft 391 kts 319°
2026-05-07 13:53 37.56419 -83.77653 36004 ft 390 kts 319°
2026-05-07 13:54 37.61465 -83.80095 36006 ft 388 kts 319°
2026-05-07 13:54 37.66671 -83.82627 36332 ft 390 kts 319°
2026-05-07 13:54 37.69206 -83.83858 36527 ft 390 kts 320°
2026-05-07 13:55 37.71800 -83.85117 36765 ft 389 kts 320°
2026-05-07 13:55 37.74403 -83.86383 36985 ft 388 kts 319°
2026-05-07 13:55 37.76978 -83.87637 37006 ft 386 kts 319°
2026-05-07 13:56 37.82101 -83.90132 37010 ft 386 kts 319°
2026-05-07 13:56 37.87299 -83.92676 37016 ft 385 kts 319°
2026-05-07 13:57 37.92427 -83.95182 37023 ft 385 kts 319°
2026-05-07 13:57 37.97609 -83.97722 37031 ft 386 kts 319°
2026-05-07 13:58 38.02673 -84.00206 37034 ft 386 kts 319°
2026-05-07 13:58 38.07914 -84.02781 37027 ft 386 kts 319°
2026-05-07 13:59 38.12999 -84.05288 37079 ft 388 kts 319°
2026-05-07 13:59 38.15577 -84.06557 37249 ft 388 kts 319°
2026-05-07 13:59 38.18228 -84.07864 37413 ft 387 kts 320°
2026-05-07 13:59 38.20773 -84.09116 37613 ft 385 kts 319°
2026-05-07 14:00 38.23284 -84.10354 37636 ft 385 kts 319°
2026-05-07 14:00 38.28353 -84.12866 37850 ft 387 kts 320°
2026-05-07 14:00 38.30860 -84.14104 38022 ft 385 kts 320°
2026-05-07 14:01 38.33478 -84.15398 38022 ft 385 kts 320°
2026-05-07 14:01 38.38938 -84.18104 38033 ft 383 kts 320°
2026-05-07 14:02 38.44115 -84.20676 38028 ft 385 kts 320°
2026-05-07 14:02 38.49197 -84.23204 38031 ft 384 kts 320°
2026-05-07 14:03 38.54271 -84.25731 38023 ft 386 kts 320°
2026-05-07 14:03 38.59436 -84.28312 38027 ft 388 kts 320°
2026-05-07 14:04 38.64526 -84.30795 38021 ft 392 kts 323°
2026-05-07 14:04 38.69916 -84.32888 38025 ft 400 kts 326°
2026-05-07 14:05 38.75399 -84.34885 38029 ft 402 kts 326°
2026-05-07 14:05 38.80866 -84.36874 38029 ft 402 kts 326°
2026-05-07 14:06 38.86333 -84.38869 38027 ft 400 kts 326°
2026-05-07 14:06 38.91829 -84.40880 38030 ft 400 kts 326°
2026-05-07 14:07 38.97286 -84.42885 38023 ft 401 kts 327°
2026-05-07 14:07 39.02751 -84.44895 38026 ft 402 kts 327°
2026-05-07 14:08 39.08207 -84.46904 38037 ft 403 kts 327°
2026-05-07 14:08 39.13670 -84.48917 38038 ft 404 kts 327°
2026-05-07 14:09 39.19150 -84.50938 38036 ft 404 kts 327°
2026-05-07 14:09 39.24691 -84.52985 38027 ft 403 kts 327°
2026-05-07 14:10 39.30164 -84.55017 38033 ft 405 kts 327°
2026-05-07 14:10 39.35711 -84.57073 38032 ft 405 kts 328°
2026-05-07 14:11 39.41247 -84.59130 38044 ft 405 kts 328°
2026-05-07 14:11 39.46848 -84.61217 38037 ft 405 kts 328°
2026-05-07 14:12 39.52486 -84.63318 38037 ft 406 kts 328°
2026-05-07 14:12 39.58037 -84.65392 38031 ft 407 kts 328°
2026-05-07 14:13 39.63621 -84.67484 38033 ft 408 kts 328°
2026-05-07 14:13 39.69334 -84.69621 38040 ft 406 kts 328°
2026-05-07 14:14 39.74934 -84.71720 38028 ft 406 kts 328°
2026-05-07 14:14 39.80438 -84.73793 38024 ft 408 kts 329°
2026-05-07 14:15 39.85976 -84.75877 38031 ft 405 kts 329°
2026-05-07 14:15 39.91501 -84.77965 38010 ft 408 kts 329°
2026-05-07 14:16 39.97138 -84.80097 38007 ft 407 kts 329°
2026-05-07 14:16 40.03106 -84.82355 38014 ft 408 kts 329°
2026-05-07 14:17 40.08923 -84.84560 38022 ft 409 kts 330°
2026-05-07 14:17 40.14566 -84.86703 38022 ft 410 kts 330°
2026-05-07 14:18 40.20044 -84.88790 38022 ft 410 kts 330°
2026-05-07 14:18 40.25688 -84.90939 38023 ft 410 kts 330°
2026-05-07 14:19 40.31330 -84.93094 38027 ft 411 kts 330°
2026-05-07 14:19 40.36897 -84.95225 38029 ft 411 kts 330°
2026-05-07 14:20 40.42534 -84.97385 38031 ft 412 kts 330°
2026-05-07 14:20 40.48141 -84.99538 38034 ft 413 kts 330°
2026-05-07 14:21 40.53783 -85.01708 38033 ft 414 kts 330°
2026-05-07 14:21 40.59566 -85.03934 38032 ft 413 kts 331°
2026-05-07 14:22 40.65445 -85.06203 38031 ft 413 kts 331°
2026-05-07 14:22 40.71313 -85.08474 38027 ft 414 kts 331°
2026-05-07 14:23 40.77070 -85.10703 38019 ft 415 kts 331°
2026-05-07 14:23 40.82713 -85.12894 38027 ft 416 kts 331°
2026-05-07 14:24 40.88490 -85.15139 38031 ft 416 kts 331°
2026-05-07 14:24 40.94068 -85.17396 38032 ft 411 kts 328°
2026-05-07 14:25 40.99481 -85.20354 38028 ft 401 kts 322°
2026-05-07 14:25 41.04593 -85.24056 38022 ft 395 kts 318°
2026-05-07 14:26 41.09478 -85.27902 38037 ft 396 kts 318°
2026-05-07 14:26 41.14358 -85.31758 38032 ft 397 kts 318°
2026-05-07 14:27 41.19243 -85.35622 38027 ft 398 kts 318°
2026-05-07 14:27 41.24223 -85.39566 38026 ft 399 kts 318°
2026-05-07 14:28 41.29394 -85.43670 38026 ft 399 kts 319°
2026-05-07 14:28 41.34280 -85.47552 38008 ft 399 kts 318°
2026-05-07 14:29 41.39158 -85.51435 38014 ft 399 kts 319°
2026-05-07 14:29 41.44131 -85.55402 38013 ft 400 kts 319°
2026-05-07 14:30 41.49183 -85.59438 38027 ft 402 kts 318°
2026-05-07 14:30 41.54071 -85.63351 38017 ft 401 kts 319°
2026-05-07 14:31 41.59085 -85.67373 38013 ft 401 kts 318°
2026-05-07 14:31 41.64076 -85.71381 38023 ft 401 kts 318°
2026-05-07 14:32 41.69437 -85.75700 38029 ft 402 kts 318°
2026-05-07 14:32 41.74244 -85.79575 38027 ft 403 kts 318°
2026-05-07 14:33 41.79633 -85.83929 38011 ft 403 kts 318°
2026-05-07 14:33 41.84468 -85.87844 38015 ft 406 kts 318°
2026-05-07 14:34 41.89288 -85.91753 37996 ft 403 kts 318°
2026-05-07 14:34 41.91712 -85.93715 37788 ft 399 kts 318°
2026-05-07 14:34 41.94087 -85.95643 37361 ft 397 kts 318°
2026-05-07 14:34 41.96435 -85.97551 36902 ft 395 kts 318°
2026-05-07 14:35 41.98766 -85.99450 36484 ft 392 kts 318°
2026-05-07 14:35 42.01118 -86.01366 36072 ft 389 kts 317°
2026-05-07 14:35 42.03418 -86.03245 35605 ft 387 kts 317°
2026-05-07 14:35 42.05748 -86.05153 35141 ft 385 kts 318°
2026-05-07 14:36 42.08208 -86.07212 34563 ft 383 kts 315°
2026-05-07 14:36 42.10438 -86.09387 33627 ft 389 kts 311°
2026-05-07 14:36 42.12563 -86.11835 32738 ft 393 kts 308°
2026-05-07 14:36 42.14497 -86.14410 32044 ft 391 kts 304°
2026-05-07 14:37 42.16299 -86.17184 31383 ft 388 kts 300°
2026-05-07 14:37 42.19384 -86.23108 29906 ft 384 kts 295°
2026-05-07 14:37 42.20796 -86.26152 29073 ft 382 kts 295°
2026-05-07 14:38 42.22188 -86.29171 27831 ft 386 kts 295°
2026-05-07 14:38 42.23604 -86.32267 26253 ft 395 kts 296°
2026-05-07 14:38 42.25017 -86.35346 25239 ft 386 kts 296°
2026-05-07 14:38 42.26418 -86.38384 24975 ft 368 kts 297°
2026-05-07 14:39 42.27746 -86.41269 24705 ft 361 kts 296°
2026-05-07 14:39 42.29069 -86.44157 24440 ft 360 kts 296°
2026-05-07 14:39 42.30402 -86.47079 24019 ft 358 kts 297°
2026-05-07 14:39 42.31710 -86.49955 23510 ft 356 kts 297°
2026-05-07 14:40 42.33025 -86.52841 22969 ft 354 kts 297°
2026-05-07 14:40 42.34330 -86.55710 22462 ft 352 kts 297°
2026-05-07 14:40 42.35610 -86.58527 21906 ft 351 kts 297°
2026-05-07 14:40 42.36872 -86.61304 21354 ft 350 kts 297°
2026-05-07 14:41 42.38153 -86.64131 20804 ft 349 kts 297°
2026-05-07 14:41 42.39396 -86.66876 20273 ft 347 kts 297°
2026-05-07 14:41 42.40812 -86.70001 19686 ft 346 kts 297°
2026-05-07 14:41 42.42197 -86.73062 19051 ft 346 kts 297°
2026-05-07 14:42 42.43598 -86.76163 18437 ft 345 kts 297°
2026-05-07 14:42 42.44847 -86.78931 17935 ft 343 kts 297°
2026-05-07 14:42 42.46186 -86.81902 17408 ft 340 kts 298°
2026-05-07 14:42 42.47429 -86.84662 16934 ft 336 kts 298°
2026-05-07 14:43 42.48644 -86.87360 16455 ft 334 kts 298°
2026-05-07 14:43 42.49858 -86.90059 15995 ft 331 kts 298°
2026-05-07 14:43 42.51062 -86.92744 15535 ft 328 kts 299°
2026-05-07 14:43 42.52249 -86.95387 15071 ft 325 kts 299°
2026-05-07 14:44 42.53404 -86.97962 14647 ft 322 kts 299°
2026-05-07 14:44 42.54554 -87.00531 14203 ft 319 kts 300°
2026-05-07 14:44 42.55714 -87.03124 13753 ft 316 kts 300°
2026-05-07 14:44 42.56844 -87.05647 13335 ft 312 kts 300°
2026-05-07 14:45 42.57962 -87.08147 12940 ft 309 kts 300°
2026-05-07 14:45 42.59084 -87.10655 12499 ft 306 kts 300°
2026-05-07 14:45 42.60173 -87.13096 12097 ft 304 kts 300°
2026-05-07 14:45 42.61272 -87.15563 11677 ft 301 kts 300°
2026-05-07 14:46 42.62344 -87.17966 11248 ft 298 kts 300°
2026-05-07 14:46 42.63415 -87.20373 10837 ft 295 kts 300°
2026-05-07 14:46 42.64474 -87.22756 10468 ft 290 kts 300°
2026-05-07 14:46 42.65487 -87.25037 10354 ft 276 kts 300°
2026-05-07 14:47 42.66458 -87.27222 10249 ft 263 kts 300°
2026-05-07 14:47 42.67386 -87.29314 10125 ft 251 kts 299°
2026-05-07 14:47 42.68274 -87.31313 10017 ft 240 kts 300°
2026-05-07 14:47 42.69138 -87.33233 9734 ft 238 kts 303°
2026-05-07 14:48 42.70270 -87.34876 9365 ft 242 kts 317°
2026-05-07 14:48 42.71711 -87.36073 9014 ft 245 kts 329°
2026-05-07 14:48 42.73239 -87.37052 8710 ft 242 kts 329°
2026-05-07 14:48 42.74764 -87.38007 8481 ft 238 kts 330°
2026-05-07 14:49 42.76292 -87.38965 8279 ft 242 kts 330°
2026-05-07 14:49 42.77861 -87.39954 8066 ft 252 kts 330°
2026-05-07 14:49 42.79476 -87.40971 7855 ft 252 kts 330°
2026-05-07 14:49 42.81054 -87.41960 7638 ft 252 kts 330°
2026-05-07 14:50 42.82706 -87.43000 7345 ft 251 kts 331°
2026-05-07 14:50 42.84283 -87.44039 7040 ft 248 kts 327°
2026-05-07 14:50 42.85756 -87.45306 6722 ft 245 kts 321°
2026-05-07 14:50 42.87109 -87.46742 6393 ft 243 kts 318°
2026-05-07 14:51 42.88420 -87.48175 6064 ft 241 kts 317°
2026-05-07 14:51 42.89725 -87.49613 5757 ft 239 kts 318°
2026-05-07 14:51 42.91013 -87.51034 5443 ft 238 kts 318°
2026-05-07 14:51 42.92287 -87.52436 5129 ft 237 kts 319°
2026-05-07 14:52 42.93568 -87.53848 4791 ft 236 kts 319°
2026-05-07 14:52 42.94846 -87.55255 4376 ft 239 kts 319°
2026-05-07 14:52 42.96173 -87.56718 3908 ft 243 kts 319°
2026-05-07 14:52 42.97505 -87.58186 3548 ft 241 kts 319°
2026-05-07 14:53 42.98838 -87.59654 3289 ft 236 kts 319°
2026-05-07 14:53 42.99962 -87.61192 3116 ft 224 kts 298°
2026-05-07 14:53 43.00366 -87.63208 3040 ft 210 kts 274°
2026-05-07 14:53 43.00247 -87.65153 3055 ft 202 kts 260°
2026-05-07 14:54 42.99912 -87.67004 3063 ft 201 kts 257°
2026-05-07 14:54 42.99503 -87.68873 3063 ft 198 kts 255°
2026-05-07 14:54 42.99081 -87.70635 3058 ft 189 kts 254°
2026-05-07 14:54 42.98674 -87.72286 3171 ft 176 kts 254°
2026-05-07 14:55 42.98284 -87.73864 2914 ft 171 kts 255°
2026-05-07 14:55 42.97903 -87.75416 2665 ft 166 kts 255°
2026-05-07 14:55 42.97520 -87.76971 2439 ft 157 kts 255°
2026-05-07 14:55 42.97190 -87.78313 2254 ft 142 kts 255°
2026-05-07 14:56 42.96884 -87.79563 2066 ft 135 kts 255°
2026-05-07 14:56 42.96588 -87.80776 1893 ft 133 kts 255°
2026-05-07 14:56 42.96296 -87.81972 1719 ft 132 kts 255°
2026-05-07 14:56 42.96005 -87.83161 1544 ft 132 kts 255°
2026-05-07 14:57 42.95716 -87.84347 1367 ft 132 kts 255°
2026-05-07 14:57 42.95426 -87.85528 1196 ft 131 kts 255°
2026-05-07 14:57 42.95138 -87.86713 1020 ft 131 kts 255°
2026-05-07 14:57 42.94854 -87.87884 849 ft 130 kts 254°
2026-05-07 14:58 42.94572 -87.89050 702 ft 130 kts 253°
2026-05-07 14:58 42.94320 -87.90093 684 ft 93 kts 252°
2026-05-07 14:58 42.94192 -87.90610 693 ft 24 kts 252°
2026-05-07 14:58 42.94193 -87.90714 695 ft 10 kts 311°
2026-05-07 14:59 42.94261 -87.90727 694 ft 12 kts 33°
2026-05-07 14:59 42.94307 -87.90617 691 ft 15 kts 73°
2026-05-07 14:59 42.94341 -87.90473 689 ft 17 kts 71°
2026-05-07 14:59 42.94382 -87.90307 685 ft 19 kts 72°
2026-05-07 15:00 42.94425 -87.90125 683 ft 20 kts 72°
2026-05-07 15:00 42.94463 -87.89984 681 ft 12 kts 48°
2026-05-07 15:00 42.94533 -87.89923 680 ft 12 kts 69°
2026-05-07 15:00 42.94582 -87.89806 679 ft 15 kts 57°
2026-05-07 15:01 42.94676 -87.89738 677 ft 16 kts
2026-05-07 15:01 42.94795 -87.89717 676 ft 17 kts
2026-05-07 15:01 42.94904 -87.89706 676 ft 13 kts
2026-05-07 15:01 42.94978 -87.89777 675 ft 13 kts 306°
2026-05-07 15:02 42.94969 -87.89898 676 ft 13 kts 248°
2026-05-07 15:02 42.94908 -87.89995 677 ft 13 kts 206°
2026-05-07 15:02 42.94851 -87.90008 677 ft 6 kts 186°
2026-05-07 15:02 42.94828 -87.90013 678 ft 2 kts 191°
2026-05-07 15:03 42.94825 -87.90014 678 ft 0 kts 191°
2026-05-07 15:03 42.94816 -87.90016 678 ft 1 kts 189°
2026-05-07 15:03 42.94807 -87.90018 678 ft 0 kts 189°
2026-05-07 15:03 42.94804 -87.90018 678 ft 0 kts 189°